| time (UTC) | temp F | wind direction | speed MPH | gust MPH | rain 1hr in | rain 24hr in | rain mn in | humidity % | barometer mb |
| 20260902095615 | 68 | 231 | 1.0 | 2.0 | 0.00 | 0.00 | 0.00 | 96 | |
| 20260902095114 | 68 | 312 | 0.0 | 1.0 | 0.00 | 0.00 | 0.00 | 96 | |
| 20260902094610 | 68 | 134 | 0.0 | 1.0 | 0.00 | 0.00 | 0.00 | 96 | |
| 20260902094106 | 68 | 113 | 0.0 | 0.0 | 0.00 | 0.00 | 0.00 | 96 | |
| 20260902093606 | 68 | 217 | 0.0 | 3.0 | 0.00 | 0.00 | 0.00 | 96 | |
| 20260902093100 | 68 | 129 | 0.0 | 0.0 | 0.00 | 0.00 | 0.00 | 96 | |
| 20260902092555 | 68 | 129 | 0.0 | 0.0 | 0.00 | 0.00 | 0.00 | 96 | |
| 20260902092050 | 68 | 129 | 0.0 | 0.0 | 0.00 | 0.00 | 0.00 | 96 | |
| 20260902091545 | 68 | 217 | 0.0 | 0.0 | 0.00 | 0.00 | 0.00 | 96 | |
| 20260902091041 | 68 | 217 | 0.0 | 1.0 | 0.00 | 0.00 | 0.00 | 96 | |
| 20260902090537 | 68 | 142 | 0.0 | 0.0 | 0.00 | 0.00 | 0.00 | 96 | |
| 20260902090036 | 68 | 142 | 0.0 | 0.0 | 0.00 | 0.00 | 0.00 | 96 | |
| 20260902085530 | 68 | 230 | 0.0 | 0.0 | 0.00 | 0.00 | 0.00 | 96 | |
| 20260902085026 | 68 | 230 | 0.0 | 0.0 | 0.00 | 0.00 | 0.00 | 96 | |
| 20260902084522 | 68 | 193 | 1.0 | 1.0 | 0.00 | 0.00 | 0.00 | 96 | |
| 20260902084017 | 68 | 240 | 0.0 | 2.0 | 0.00 | 0.00 | 0.00 | 96 | |
| 20260902083513 | 68 | 120 | 0.0 | 1.0 | 0.00 | 0.00 | 0.00 | 96 | |
| 20260902083007 | 68 | 246 | 0.0 | 2.0 | 0.00 | 0.00 | 0.00 | 96 | |
| 20260902082503 | 68 | 184 | 0.0 | 2.0 | 0.00 | 0.00 | 0.00 | 96 | |
| 20260902081959 | 68 | 89 | 0.0 | 2.0 | 0.00 | 0.00 | 0.00 | 96 | |
| 20260902081455 | 68 | 204 | 0.0 | 2.0 | 0.00 | 0.00 | 0.00 | 96 | |
| 20260902080949 | 68 | 112 | 1.0 | 1.0 | 0.00 | 0.00 | 0.00 | 96 | |
| 20260902080446 | 68 | 129 | 0.0 | 1.0 | 0.00 | 0.00 | 0.00 | 96 | |
| 20260902075945 | 68 | 229 | 0.0 | 1.0 | 0.00 | 0.00 | 0.00 | 96 | |
| 20260902075441 | 68 | 212 | 0.0 | 2.0 | 0.00 | 0.00 | 0.00 | 96 | |
| 20260902074937 | 68 | 129 | 0.0 | 1.0 | 0.00 | 0.00 | 0.00 | 96 | |
| 20260902074432 | 68 | 114 | 0.0 | 2.0 | 0.00 | 0.00 | 0.00 | 96 | |
| 20260902073927 | 68 | 142 | 0.0 | 0.0 | 0.00 | 0.00 | 0.00 | 96 | |
| 20260902073423 | 68 | 142 | 0.0 | 2.0 | 0.00 | 0.00 | 0.00 | 96 | |
| 20260902072919 | 68 | 174 | 0.0 | 2.0 | 0.00 | 0.00 | 0.00 | 96 | |
| 20260902072414 | 68 | 142 | 0.0 | 2.0 | 0.00 | 0.00 | 0.00 | 96 | |
| 20260902071911 | 68 | 140 | 0.0 | 2.0 | 0.00 | 0.00 | 0.00 | 96 | |
| 20260902071410 | 68 | 222 | 1.0 | 2.0 | 0.00 | 0.00 | 0.00 | 96 | |
| 20260902070907 | 68 | 225 | 0.0 | 2.0 | 0.00 | 0.00 | 0.00 | 96 | |
| 20260902070402 | 68 | 129 | 0.0 | 0.0 | 0.00 | 0.00 | 0.00 | 96 | |
| 20260902065901 | 68 | 129 | 0.0 | 0.0 | 0.00 | 0.00 | 0.00 | 96 | |
| 20260902065356 | 68 | 129 | 0.0 | 0.0 | 0.00 | 0.00 | 0.00 | 96 | |
| 20260902064851 | 68 | 202 | 0.0 | 0.0 | 0.00 | 0.00 | 0.00 | 96 | |
| 20260902064347 | 68 | 202 | 0.0 | 0.0 | 0.00 | 0.00 | 0.00 | 96 | |
| 20260902063843 | 69 | 217 | 0.0 | 1.0 | 0.00 | 0.00 | 0.00 | 96 | |
| 20260902063343 | 68 | 216 | 0.0 | 1.0 | 0.00 | 0.00 | 0.00 | 96 | |
| 20260902062842 | 69 | 142 | 0.0 | 0.0 | 0.00 | 0.00 | 0.00 | 96 | |
| 20260902062337 | 69 | 142 | 0.0 | 0.0 | 0.00 | 0.00 | 0.00 | 96 | |
| 20260902061836 | 69 | 124 | 0.0 | 1.0 | 0.00 | 0.00 | 0.00 | 96 | |
| 20260902061332 | 69 | 136 | 0.0 | 1.0 | 0.00 | 0.00 | 0.00 | 96 | |
| 20260902060828 | 69 | 161 | 0.0 | 2.0 | 0.00 | 0.00 | 0.00 | 96 | |
| 20260902060324 | 69 | 209 | 0.0 | 0.0 | 0.00 | 0.00 | 0.00 | 96 | |
| 20260902055819 | 69 | 180 | 0.0 | 0.0 | 0.00 | 0.00 | 0.00 | 96 | |
| 20260902055316 | 69 | 235 | 0.0 | 1.0 | 0.00 | 0.00 | 0.00 | 96 | |
| 20260902054816 | 69 | 249 | 0.0 | 1.0 | 0.00 | 0.00 | 0.00 | 96 | |
| 20260902054311 | 69 | 209 | 0.0 | 1.0 | 0.00 | 0.00 | 0.00 | 96 | |
| 20260902053806 | 69 | 173 | 0.0 | 2.0 | 0.00 | 0.00 | 0.00 | 96 | |
| 20260902053301 | 69 | 134 | 0.0 | 1.0 | 0.00 | 0.00 | 0.00 | 96 | |
| 20260902052800 | 69 | 129 | 0.0 | 0.0 | 0.00 | 0.00 | 0.00 | 96 | |
| 20260902052255 | 69 | 89 | 0.0 | 0.0 | 0.02 | 0.00 | 0.00 | 96 | |
| 20260902051750 | 69 | 129 | 0.0 | 1.0 | 0.00 | 0.00 | 0.00 | 96 | |
| 20260902051249 | 69 | 217 | 0.0 | 0.0 | 0.00 | 0.00 | 0.00 | 96 | |
| 20260902050744 | 69 | 217 | 0.0 | 0.0 | 0.00 | 0.00 | 0.00 | 96 | |
| 20260902050240 | 69 | 202 | 0.0 | 1.0 | 0.00 | 0.00 | 0.00 | 96 | |
| 20260902045739 | 69 | 242 | 2.0 | 2.0 | 0.00 | 0.00 | 0.00 | 96 | |
| 20260902045236 | 69 | 235 | 0.0 | 2.0 | 0.00 | 0.00 | 0.00 | 96 | |
| 20260902044731 | 69 | 140 | 0.0 | 3.0 | 0.00 | 0.00 | 0.00 | 96 | |
| 20260902044226 | 69 | 202 | 0.0 | 2.0 | 0.00 | 0.00 | 0.00 | 96 | |
| 20260902043721 | 69 | 219 | 0.0 | 2.0 | 0.00 | 0.00 | 0.00 | 96 | |
| 20260902043217 | 68 | 193 | 0.0 | 1.0 | 0.00 | 0.00 | 0.00 | 96 | |
| 20260902042716 | 68 | 163 | 0.0 | 1.0 | 0.00 | 0.00 | 0.00 | 96 | |
| 20260902042211 | 68 | 342 | 1.0 | 2.0 | 0.00 | 0.00 | 0.00 | 96 | |
| 20260902041706 | 69 | 229 | 0.0 | 2.0 | 0.00 | 0.00 | 0.00 | 96 | |
| 20260902041201 | 68 | 135 | 0.0 | 2.0 | 0.00 | 0.00 | 0.00 | 96 | |
| 20260902040700 | 68 | 326 | 0.0 | 1.0 | 0.00 | 0.00 | 0.00 | 96 | |
| 20260902040156 | 69 | 255 | 2.0 | 3.0 | 0.00 | 1.02 | 1.02 | 96 | |
| 20260902035654 | 68 | 142 | 0.0 | 1.0 | 0.00 | 1.02 | 1.02 | 96 | |
| 20260902035150 | 68 | 147 | 0.0 | 1.0 | 0.00 | 1.02 | 1.02 | 96 | |
| 20260902034649 | 68 | 160 | 0.0 | 1.0 | 0.00 | 1.02 | 1.02 | 96 | |
| 20260902034148 | 68 | 93 | 0.0 | 1.0 | 0.00 | 1.02 | 1.02 | 96 | |
| 20260902033647 | 68 | 114 | 0.0 | 2.0 | 0.00 | 1.02 | 1.02 | 96 | |
| 20260902033142 | 68 | 212 | 0.0 | 1.0 | 0.00 | 1.02 | 1.02 | 96 | |
| 20260902032641 | 69 | 141 | 0.0 | 1.0 | 0.00 | 1.02 | 1.02 | 96 | |
| 20260902032136 | 68 | 113 | 0.0 | 1.0 | 0.00 | 1.02 | 1.02 | 96 | |
| 20260902031630 | 68 | 89 | 0.0 | 1.0 | 0.00 | 1.02 | 1.02 | 96 | |
| 20260902031126 | 68 | 124 | 0.0 | 0.0 | 0.00 | 1.02 | 1.02 | 96 | |
| 20260902030621 | 68 | 124 | 0.0 | 1.0 | 0.00 | 1.02 | 1.02 | 96 | |
| 20260902030121 | 68 | 352 | 0.0 | 0.0 | 0.00 | 1.02 | 1.02 | 96 | |
| 20260902025621 | 68 | 352 | 0.0 | 0.0 | 0.00 | 1.02 | 1.02 | 96 | |
| 20260902025116 | 68 | 352 | 0.0 | 0.0 | 0.00 | 1.02 | 1.02 | 96 | |
| 20260902024612 | 68 | 352 | 0.0 | 1.0 | 0.00 | 1.02 | 1.02 | 96 | |
| 20260902024106 | 68 | 353 | 0.0 | 0.0 | 0.00 | 1.02 | 1.02 | 96 | |
| 20260902023602 | 68 | 353 | 0.0 | 0.0 | 0.00 | 1.02 | 1.02 | 96 | |
| 20260902023056 | 69 | 129 | 0.0 | 0.0 | 0.00 | 1.02 | 1.02 | 96 | |
| 20260902022556 | 69 | 129 | 0.0 | 0.0 | 0.00 | 1.02 | 1.02 | 96 | |
| 20260902022052 | 69 | 129 | 0.0 | 0.0 | 0.00 | 1.02 | 1.02 | 96 | |
| 20260902021547 | 69 | 166 | 0.0 | 0.0 | 0.00 | 1.02 | 1.02 | 96 | |
| 20260902021042 | 69 | 166 | 0.0 | 0.0 | 0.00 | 1.02 | 1.02 | 96 | |
| 20260902020538 | 69 | 166 | 0.0 | 1.0 | 0.00 | 1.02 | 1.02 | 96 | |
| 20260902020034 | 69 | 129 | 0.0 | 0.0 | 0.00 | 1.02 | 1.02 | 96 | |
| 20260902015529 | 69 | 129 | 0.0 | 1.0 | 0.00 | 1.02 | 1.02 | 96 | |
| 20260902015025 | 69 | 345 | 0.0 | 0.0 | 0.00 | 1.02 | 1.02 | 96 | |
| 20260902014521 | 69 | 0 | 0.0 | 1.0 | 0.00 | 1.02 | 1.02 | 96 | |
| 20260902014016 | 69 | 0 | 0.0 | 0.0 | 0.00 | 1.02 | 1.02 | 96 | |
| 20260902013511 | 69 | 0 | 0.0 | 0.0 | 0.00 | 1.02 | 1.02 | 96 | |
| 20260902013006 | 70 | 0 | 0.0 | 1.0 | 0.00 | 1.02 | 1.02 | 96 | |
| 20260902012501 | 70 | 212 | 0.0 | 0.0 | 0.00 | 1.02 | 1.02 | 96 | |
| 20260902011957 | 70 | 212 | 0.0 | 0.0 | 0.00 | 1.02 | 1.02 | 96 | |
| 20260902011452 | 70 | 212 | 0.0 | 0.0 | 0.00 | 1.02 | 1.02 | 96 | |
| 20260902010951 | 70 | 212 | 0.0 | 0.0 | 0.00 | 1.02 | 1.02 | 96 | |
| 20260902010447 | 70 | 212 | 0.0 | 0.0 | 0.00 | 1.02 | 1.02 | 96 | |
| 20260902005946 | 70 | 212 | 0.0 | 1.0 | 0.00 | 1.02 | 1.02 | 96 | |
| 20260902005445 | 70 | 142 | 0.0 | 1.0 | 0.00 | 1.02 | 1.02 | 96 | |
| 20260902004942 | 70 | 0 | 0.0 | 1.0 | 0.00 | 1.02 | 1.02 | 96 | |
| 20260902004441 | 71 | 142 | 0.0 | 0.0 | 0.00 | 1.02 | 1.02 | 96 | |
| 20260902003936 | 71 | 164 | 0.0 | 0.0 | 0.00 | 1.02 | 1.02 | 96 | |
| 20260902003436 | 71 | 164 | 0.0 | 1.0 | 0.00 | 1.02 | 1.02 | 96 | |
| 20260902002932 | 71 | 15 | 0.0 | 0.0 | 0.00 | 1.02 | 1.02 | 96 | |
| 20260902002427 | 71 | 15 | 0.0 | 0.0 | 0.00 | 1.02 | 1.02 | 96 | |
| 20260902001926 | 71 | 15 | 0.0 | 0.0 | 0.00 | 1.02 | 1.02 | 96 | |
| 20260902001421 | 72 | 15 | 0.0 | 0.0 | 0.00 | 1.02 | 1.02 | 96 | |
| 20260902000917 | 72 | 15 | 0.0 | 0.0 | 0.00 | 1.02 | 1.02 | 96 | |
| 20260902000414 | 72 | 15 | 0.0 | 0.0 | 0.00 | 1.02 | 1.02 | 96 | |
| 20260901235906 | 72 | 129 | 0.0 | 0.0 | 0.00 | 1.02 | 1.02 | 96 | |
| 20260901235401 | 73 | 129 | 0.0 | 0.0 | 0.00 | 1.02 | 1.02 | 96 | |
| 20260901234856 | 73 | 129 | 0.0 | 0.0 | 0.00 | 1.02 | 1.02 | 96 | |
| 20260901234350 | 73 | 129 | 0.0 | 0.0 | 0.00 | 1.02 | 1.02 | 96 | 1015.2 |
| 20260901233845 | 73 | 129 | 0.0 | 0.0 | 0.00 | 1.02 | 1.02 | 96 | 1015.2 |
| 20260901233341 | 73 | 129 | 0.0 | 0.0 | 0.00 | 1.02 | 1.02 | 96 | 1015.2 |
| 20260901232836 | 73 | 166 | 0.0 | 1.0 | 0.00 | 1.02 | 1.02 | 95 | 1015.2 |
| 20260901232331 | 74 | 205 | 0.0 | 1.0 | 0.00 | 1.02 | 1.02 | 95 | 1015.2 |
| 20260901231827 | 74 | 333 | 0.0 | 0.0 | 0.00 | 1.02 | 1.02 | 94 | 1015.2 |
| 20260901231323 | 75 | 333 | 0.0 | 0.0 | 0.00 | 1.02 | 1.02 | 93 | 1015.2 |
| 20260901230820 | 75 | 214 | 0.0 | 0.0 | 0.00 | 1.02 | 1.02 | 92 | 1015.2 |
| 20260901230319 | 76 | 224 | 0.0 | 1.0 | 0.00 | 1.02 | 1.02 | 91 | 1015.2 |
| 20260901225815 | 76 | 134 | 0.0 | 2.0 | 0.00 | 1.02 | 1.02 | 91 | 1015.2 |
| 20260901225314 | 77 | 89 | 0.0 | 0.0 | 0.00 | 1.02 | 1.02 | 89 | 1015.2 |
| 20260901224809 | 79 | 242 | 0.0 | 0.0 | 0.00 | 1.02 | 1.02 | 87 | 1015.4 |
| 20260901224306 | 79 | 242 | 0.0 | 0.0 | 0.00 | 1.02 | 1.02 | 86 | 1015.2 |
| 20260901223801 | 81 | 293 | 0.0 | 1.0 | 0.00 | 1.02 | 1.02 | 83 | 1015.0 |
| 20260901223256 | 80 | 257 | 0.0 | 1.0 | 0.00 | 1.02 | 1.02 | 83 | 1015.1 |
| 20260901222752 | 80 | 202 | 0.0 | 1.0 | 0.00 | 1.02 | 1.02 | 85 | 1015.1 |
| 20260901222248 | 80 | 246 | 0.0 | 1.0 | 0.00 | 1.02 | 1.02 | 85 | 1015.0 |
| 20260901221744 | 78 | 6 | 0.0 | 2.0 | 0.00 | 1.02 | 1.02 | 87 | 1015.2 |
| 20260901221239 | 78 | 309 | 0.0 | 2.0 | 0.00 | 1.02 | 1.02 | 85 | 1015.0 |
| 20260901220739 | 78 | 315 | 2.0 | 5.0 | 0.00 | 1.02 | 1.02 | 85 | 1015.3 |
| 20260901220233 | 79 | 317 | 2.0 | 3.0 | 0.00 | 1.02 | 1.02 | 85 | 1015.4 |
| 20260901215731 | 79 | 324 | 4.0 | 4.0 | 0.00 | 1.02 | 1.02 | 84 | 1015.2 |
| 20260901215232 | 79 | 293 | 0.0 | 1.0 | 0.00 | 1.02 | 1.02 | 86 | 1015.3 |
| 20260901214730 | 78 | 359 | 2.0 | 3.0 | 0.00 | 1.02 | 1.02 | 87 | 1015.0 |
| 20260901214223 | 78 | 336 | 0.0 | 2.0 | 0.00 | 1.02 | 1.02 | 89 | 1015.2 |
| 20260901213718 | 78 | 326 | 2.0 | 2.0 | 0.00 | 1.02 | 1.02 | 87 | 1015.1 |
| 20260901213213 | 79 | 260 | 0.0 | 4.0 | 0.00 | 1.02 | 1.02 | 84 | 1015.0 |
| 20260901212712 | 80 | 265 | 1.0 | 2.0 | 0.00 | 1.02 | 1.02 | 80 | 1015.0 |
| 20260901212208 | 80 | 232 | 4.0 | 5.0 | 0.00 | 1.02 | 1.02 | 81 | 1015.0 |
| 20260901211708 | 78 | 242 | 0.0 | 2.0 | 0.00 | 1.02 | 1.02 | 86 | 1015.0 |
| 20260901211205 | 78 | 327 | 2.0 | 3.0 | 0.00 | 1.02 | 1.02 | 85 | 1014.9 |
| 20260901210700 | 79 | 315 | 2.0 | 3.0 | 0.00 | 1.02 | 1.02 | 82 | 1014.8 |
| 20260901210156 | 80 | 316 | 3.0 | 4.0 | 0.00 | 1.02 | 1.02 | 83 | 1014.8 |
| 20260901205651 | 80 | 321 | 2.0 | 3.0 | 0.00 | 1.02 | 1.02 | 84 | 1014.8 |
| 20260901205146 | 79 | 299 | 0.0 | 3.0 | 0.00 | 1.02 | 1.02 | 86 | 1014.8 |
| 20260901204641 | 78 | 236 | 5.0 | 5.0 | 0.00 | 1.02 | 1.02 | 86 | 1015.1 |
| 20260901204137 | 78 | 315 | 0.0 | 4.0 | 0.00 | 1.02 | 1.02 | 88 | 1015.1 |
| 20260901203637 | 78 | 304 | 0.0 | 2.0 | 0.00 | 1.02 | 1.02 | 90 | 1015.2 |
| 20260901203132 | 78 | 256 | 2.0 | 3.0 | 0.00 | 1.02 | 1.02 | 89 | 1015.0 |
| 20260901202631 | 78 | 25 | 0.0 | 2.0 | 0.00 | 1.02 | 1.02 | 90 | 1015.0 |
| 20260901202127 | 77 | 129 | 0.0 | 1.0 | 0.00 | 1.02 | 1.02 | 92 | 1015.2 |
| 20260901201623 | 77 | 336 | 0.0 | 0.0 | 0.00 | 1.02 | 1.02 | 92 | 1015.2 |
| 20260901201122 | 77 | 322 | 0.0 | 2.0 | 0.00 | 1.02 | 1.02 | 92 | 1015.4 |
| 20260901200622 | 77 | 326 | 0.0 | 3.0 | 0.00 | 1.02 | 1.02 | 91 | 1015.3 |
| 20260901200117 | 77 | 62 | 0.0 | 1.0 | 0.00 | 1.02 | 1.02 | 92 | 1015.2 |
| 20260901195615 | 77 | 37 | 0.0 | 1.0 | 0.00 | 1.02 | 1.02 | 93 | 1015.1 |
| 20260901195115 | 77 | 314 | 0.0 | 2.0 | 0.00 | 1.02 | 1.02 | 93 | 1015.2 |
| 20260901194610 | 76 | 325 | 0.0 | 2.0 | 0.00 | 1.02 | 1.02 | 94 | 1015.4 |
| 20260901194105 | 76 | 309 | 0.0 | 1.0 | 0.00 | 1.02 | 1.02 | 95 | 1015.1 |
| 20260901193601 | 76 | 313 | 1.0 | 2.0 | 0.00 | 1.02 | 1.02 | 95 | 1015.3 |
| 20260901193055 | 76 | 180 | 0.0 | 0.0 | 0.00 | 1.02 | 1.02 | 92 | 1015.3 |
| 20260901192550 | 77 | 180 | 0.0 | 0.0 | 0.00 | 1.02 | 1.02 | 91 | 1015.4 |
| 20260901192046 | 77 | 180 | 0.0 | 0.0 | 0.00 | 1.02 | 1.02 | 91 | 1015.2 |
| 20260901191542 | 76 | 130 | 0.0 | 1.0 | 0.00 | 1.02 | 1.02 | 91 | 1015.1 |
| 20260901191038 | 77 | 201 | 1.0 | 3.0 | 0.00 | 1.02 | 1.02 | 90 | 1015.1 |
| 20260901190533 | 76 | 255 | 1.0 | 4.0 | 0.00 | 1.02 | 1.02 | 91 | 1015.1 |
| 20260901190032 | 76 | 229 | 3.0 | 3.0 | 0.00 | 1.02 | 1.02 | 91 | 1015.2 |
| 20260901185531 | 76 | 226 | 2.0 | 5.0 | 0.00 | 1.02 | 1.02 | 90 | 1015.2 |
| 20260901185030 | 77 | 255 | 3.0 | 3.0 | 0.00 | 1.02 | 1.02 | 90 | 1015.3 |
| 20260901184525 | 76 | 245 | 6.0 | 7.0 | 0.00 | 1.02 | 1.02 | 90 | 1015.0 |
| 20260901184021 | 76 | 242 | 3.0 | 7.0 | 0.00 | 1.02 | 1.02 | 92 | 1015.3 |
| 20260901183515 | 75 | 238 | 3.0 | 5.0 | 0.00 | 1.02 | 1.02 | 93 | 1015.0 |
| 20260901183011 | 75 | 260 | 3.0 | 3.0 | 0.00 | 1.02 | 1.02 | 96 | 1015.3 |
| 20260901182506 | 74 | 277 | 1.0 | 4.0 | 0.00 | 1.02 | 1.02 | 96 | 1015.0 |
| 20260901182001 | 73 | 235 | 3.0 | 4.0 | 0.00 | 1.02 | 1.02 | 96 | 1015.0 |
| 20260901181500 | 73 | 239 | 2.0 | 4.0 | 0.00 | 1.02 | 1.02 | 96 | 1015.2 |
| 20260901181000 | 73 | 240 | 3.0 | 3.0 | 0.00 | 1.02 | 1.02 | 96 | 1015.0 |
| 20260901180459 | 72 | 254 | 2.0 | 4.0 | 0.00 | 1.02 | 1.02 | 96 | 1014.9 |
| 20260901175957 | 73 | 230 | 0.0 | 1.0 | 0.00 | 1.02 | 1.02 | 96 | 1014.8 |
| 20260901175452 | 72 | 141 | 0.0 | 2.0 | 0.00 | 1.02 | 1.02 | 96 | 1014.9 |
| 20260901174947 | 72 | 247 | 1.0 | 4.0 | 0.00 | 1.02 | 1.02 | 96 | 1014.8 |
| 20260901174443 | 72 | 248 | 2.0 | 4.0 | 0.00 | 1.02 | 1.02 | 96 | 1014.8 |
| 20260901173939 | 72 | 248 | 2.0 | 3.0 | 0.00 | 1.02 | 1.02 | 96 | 1014.9 |
| 20260901173433 | 73 | 67 | 2.0 | 3.0 | 0.00 | 1.02 | 1.02 | 96 | 1014.8 |
| 20260901172930 | 73 | 115 | 1.0 | 2.0 | 0.00 | 1.02 | 1.02 | 96 | 1015.0 |
| 20260901172425 | 73 | 264 | 1.0 | 3.0 | 0.00 | 1.02 | 1.02 | 96 | 1014.9 |
| 20260901171923 | 72 | 93 | 1.0 | 3.0 | 0.00 | 1.02 | 1.02 | 96 | 1014.7 |
| 20260901171422 | 71 | 252 | 2.0 | 3.0 | 0.00 | 1.02 | 1.02 | 96 | 1014.9 |
| 20260901170920 | 71 | 236 | 1.0 | 2.0 | 0.00 | 1.02 | 1.02 | 96 | 1014.9 |
| 20260901170416 | 70 | 146 | 0.0 | 4.0 | 0.00 | 1.02 | 1.02 | 96 | 1014.9 |
| 20260901165915 | 71 | 127 | 1.0 | 2.0 | 0.00 | 1.02 | 1.02 | 96 | 1014.8 |
| 20260901165410 | 70 | 227 | 1.0 | 3.0 | 0.00 | 1.02 | 1.02 | 96 | 1015.1 |
| 20260901164907 | 70 | 102 | 0.0 | 1.0 | 0.00 | 1.02 | 1.02 | 96 | 1015.1 |
| 20260901164407 | 70 | 205 | 0.0 | 2.0 | 0.00 | 1.02 | 1.02 | 96 | 1015.0 |
| 20260901163907 | 70 | 249 | 0.0 | 1.0 | 0.00 | 1.02 | 1.02 | 96 | 1015.1 |
| 20260901163356 | 70 | 129 | 0.0 | 2.0 | 0.00 | 1.02 | 1.02 | 96 | 1015.0 |
| 20260901162851 | 70 | 174 | 0.0 | 2.0 | 0.00 | 1.02 | 1.02 | 96 | 1015.1 |
| 20260901162349 | 70 | 315 | 0.0 | 0.0 | 0.00 | 1.02 | 1.02 | 96 | 1015.3 |
| 20260901161844 | 69 | 153 | 0.0 | 3.0 | 0.00 | 1.02 | 1.02 | 96 | 1015.2 |
| 20260901161338 | 69 | 211 | 1.0 | 2.0 | 0.00 | 1.02 | 1.02 | 96 | 1015.1 |
| 20260901160833 | 69 | 230 | 1.0 | 2.0 | 0.00 | 1.02 | 1.02 | 96 | 1015.1 |
| 20260901160330 | 69 | 230 | 0.0 | 0.0 | 0.00 | 1.02 | 1.02 | 96 | 1015.2 |
| 20260901155829 | 69 | 230 | 0.0 | 0.0 | 0.00 | 1.02 | 1.02 | 96 | 1015.2 |
| 20260901155323 | 69 | 142 | 0.0 | 1.0 | 0.00 | 1.02 | 1.02 | 96 | 1015.2 |
| 20260901154821 | 69 | 119 | 0.0 | 2.0 | 0.00 | 1.02 | 1.02 | 96 | 1015.2 |
| 20260901154319 | 69 | 124 | 0.0 | 1.0 | 0.00 | 1.02 | 1.02 | 96 | 1015.4 |
| 20260901153814 | 70 | 139 | 0.0 | 1.0 | 0.00 | 1.02 | 1.02 | 96 | 1015.4 |
| 20260901153314 | 69 | 142 | 0.0 | 1.0 | 0.00 | 1.02 | 1.02 | 96 | 1015.4 |
| 20260901152813 | 69 | 170 | 0.0 | 1.0 | 0.00 | 1.02 | 1.02 | 96 | 1015.3 |
| 20260901152312 | 69 | 142 | 0.0 | 0.0 | 0.00 | 1.02 | 1.02 | 96 | 1015.1 |
| 20260901151808 | 69 | 142 | 0.0 | 1.0 | 0.00 | 1.02 | 1.02 | 96 | 1015.3 |
| 20260901151302 | 68 | 217 | 0.0 | 1.0 | 0.00 | 1.02 | 1.02 | 96 | 1015.4 |
| 20260901150802 | 68 | 44 | 0.0 | 1.0 | 0.00 | 1.02 | 1.02 | 96 | 1015.3 |
| 20260901150300 | 68 | 157 | 0.0 | 1.0 | 0.00 | 1.02 | 1.02 | 96 | 1015.3 |
| 20260901145757 | 68 | 180 | 0.0 | 2.0 | 0.00 | 1.02 | 1.02 | 96 | 1015.1 |
| 20260901145251 | 68 | 254 | 1.0 | 2.0 | 0.00 | 1.02 | 1.02 | 96 | 1015.2 |
| 20260901144747 | 68 | 182 | 0.0 | 3.0 | 0.00 | 1.02 | 1.02 | 96 | 1015.0 |
| 20260901144243 | 68 | 247 | 2.0 | 3.0 | 0.02 | 1.02 | 1.02 | 96 | 1015.1 |
| 20260901143738 | 68 | 130 | 0.0 | 3.0 | 0.02 | 1.02 | 1.02 | 96 | 1015.1 |
| 20260901143234 | 68 | 175 | 1.0 | 2.0 | 0.02 | 1.02 | 1.02 | 96 | 1015.2 |
| 20260901142731 | 68 | 170 | 0.0 | 2.0 | 0.02 | 1.01 | 1.01 | 96 | 1015.1 |
| 20260901142229 | 68 | 229 | 0.0 | 2.0 | 0.02 | 1.01 | 1.01 | 96 | 1015.1 |
| 20260901141725 | 68 | 228 | 2.0 | 3.0 | 0.00 | 1.01 | 1.01 | 96 | 1014.9 |
| 20260901141225 | 68 | 139 | 0.0 | 3.0 | 0.02 | 1.01 | 1.01 | 96 | 1015.4 |
| 20260901140724 | 68 | 173 | 0.0 | 6.0 | 0.02 | 1.01 | 1.01 | 96 | 1015.3 |
| 20260901140222 | 68 | 131 | 2.0 | 3.0 | 0.28 | 1.00 | 1.00 | 96 | 1015.3 |
| 20260901135718 | 68 | 144 | 0.0 | 3.0 | 0.35 | 1.00 | 1.00 | 96 | 1015.4 |
| 20260901135212 | 68 | 232 | 1.0 | 4.0 | 0.26 | 0.94 | 0.94 | 96 | 1015.3 |
| 20260901134708 | 68 | 127 | 0.0 | 3.0 | 0.21 | 0.94 | 0.94 | 96 | 1015.2 |
| 20260901134203 | 68 | 253 | 1.0 | 3.0 | 0.00 | 0.90 | 0.90 | 96 | 1015.3 |
| 20260901133702 | 68 | 139 | 1.0 | 4.0 | 0.07 | 0.90 | 0.90 | 96 | 1015.2 |
| 20260901133201 | 68 | 158 | 1.0 | 5.0 | 0.33 | 0.90 | 0.90 | 96 | 1015.1 |
| 20260901132701 | 68 | 213 | 3.0 | 3.0 | 0.52 | 0.89 | 0.89 | 96 | 1015.4 |
| 20260901132155 | 68 | 153 | 0.0 | 8.0 | 0.83 | 0.85 | 0.85 | 96 | 1015.9 |
| 20260901131655 | 68 | 161 | 1.0 | 2.0 | 0.80 | 0.78 | 0.78 | 96 | 1015.7 |
| 20260901131155 | 68 | 322 | 0.0 | 1.0 | 0.59 | 0.71 | 0.71 | 96 | 1015.7 |
| 20260901130650 | 68 | 259 | 1.0 | 4.0 | 0.21 | 0.63 | 0.63 | 96 | 1015.7 |
| 20260901130148 | 68 | 264 | 0.0 | 2.0 | 0.02 | 0.60 | 0.60 | 96 | 1015.7 |
| 20260901125647 | 68 | 207 | 0.0 | 2.0 | 0.00 | 0.60 | 0.60 | 96 | 1015.4 |
| 20260901125142 | 68 | 230 | 2.0 | 3.0 | 0.09 | 0.60 | 0.60 | 96 | 1015.4 |
| 20260901124637 | 68 | 218 | 0.0 | 3.0 | 0.31 | 0.59 | 0.59 | 96 | 1015.6 |
| 20260901124137 | 68 | 203 | 0.0 | 3.0 | 0.24 | 0.55 | 0.55 | 96 | 1015.7 |
| 20260901123632 | 68 | 163 | 1.0 | 3.0 | 0.33 | 0.55 | 0.55 | 96 | 1015.8 |
| 20260901123131 | 68 | 76 | 0.0 | 4.0 | 0.69 | 0.53 | 0.53 | 96 | 1015.7 |
| 20260901122630 | 68 | 139 | 1.0 | 3.0 | 0.83 | 0.48 | 0.48 | 96 | 1016.1 |
| 20260901122125 | 67 | 138 | 0.0 | 3.0 | 0.73 | 0.40 | 0.40 | 96 | 1016.1 |
| 20260901121620 | 67 | 112 | 0.0 | 2.0 | 0.57 | 0.34 | 0.34 | 96 | 1016.2 |
| 20260901121115 | 67 | 273 | 2.0 | 2.0 | 0.40 | 0.28 | 0.28 | 96 | 1016.1 |
| 20260901120615 | 66 | 223 | 1.0 | 2.0 | 0.59 | 0.24 | 0.24 | 96 | 1016.1 |
| 20260901120110 | 66 | 142 | 0.0 | 1.0 | 0.54 | 0.19 | 0.19 | 96 | 1015.8 |
| 20260901115605 | 66 | 334 | 1.0 | 2.0 | 0.28 | 0.15 | 0.15 | 96 | 1015.8 |
| 20260901115102 | 66 | 263 | 0.0 | 2.0 | 0.00 | 0.10 | 0.10 | 96 | 1015.9 |
| 20260901114558 | 66 | 134 | 0.0 | 2.0 | 0.14 | 0.10 | 0.10 | 96 | 1015.5 |
| 20260901114057 | 66 | 108 | 2.0 | 2.0 | 0.19 | 0.10 | 0.10 | 96 | 1015.5 |
| 20260901113555 | 66 | 158 | 3.0 | 4.0 | 0.07 | 0.07 | 0.07 | 96 | 1015.8 |
| 20260901113046 | 66 | 345 | 0.0 | 2.0 | 0.19 | 0.07 | 0.07 | 96 | 1016.0 |
| 20260901112545 | 66 | 113 | 0.0 | 2.0 | 0.17 | 0.06 | 0.06 | 96 | 1015.7 |
| 20260901112040 | 66 | 317 | 0.0 | 2.0 | 0.05 | 0.04 | 0.04 | 96 | 1015.8 |
| 20260901111539 | 66 | 224 | 0.0 | 2.0 | 0.05 | 0.03 | 0.03 | 96 | 1015.5 |
| 20260901111037 | 66 | 142 | 0.0 | 1.0 | 0.02 | 0.03 | 0.03 | 96 | 1015.2 |
| 20260901110533 | 66 | 209 | 0.0 | 1.0 | 0.00 | 0.02 | 0.02 | 96 | 1015.2 |
| 20260901110029 | 66 | 129 | 0.0 | 2.0 | 0.00 | 0.02 | 0.02 | 96 | 1015.2 |
| 20260901105526 | 66 | 110 | 0.0 | 2.0 | 0.00 | 0.02 | 0.02 | 96 | 1015.2 |
| 20260901105024 | 66 | 44 | 0.0 | 2.0 | 0.00 | 0.02 | 0.02 | 96 | 1015.1 |
| 20260901104521 | 65 | 157 | 1.0 | 2.0 | 0.00 | 0.02 | 0.02 | 96 | 1015.2 |
| 20260901104016 | 65 | 347 | 0.0 | 2.0 | 0.00 | 0.02 | 0.02 | 96 | 1015.3 |
| 20260901103516 | 65 | 50 | 0.0 | 0.0 | 0.00 | 0.02 | 0.02 | 96 | 1015.4 |
| 20260901103012 | 65 | 105 | 0.0 | 1.0 | 0.00 | 0.02 | 0.02 | 96 | 1015.3 |
| 20260901102506 | 65 | 203 | 0.0 | 2.0 | 0.00 | 0.02 | 0.02 | 96 | 1015.3 |
| 20260901102000 | 65 | 6 | 0.0 | 0.0 | 0.00 | 0.02 | 0.02 | 96 | 1015.2 |
| 20260901101455 | 65 | 113 | 0.0 | 2.0 | 0.02 | 0.02 | 0.02 | 96 | 1015.1 |
| 20260901100950 | 65 | 145 | 0.0 | 2.0 | 0.02 | 0.02 | 0.02 | 96 | 1015.0 |
| 20260901100444 | 65 | 60 | 0.0 | 1.0 | 0.00 | 0.02 | 0.02 | 96 | 1015.2 |
| 20260901095944 | 65 | 113 | 0.0 | 1.0 | 0.00 | 0.02 | 0.02 | 96 | 1015.3 |